Starlink 2657

operational
NORAD ID: 48655 Int'l Des: 2021-044 Owner: SPXS Country: US Constellation: starlink
LEOCIRCULARSTARLINK_TYPE

Über Starlink 2657

Beschreibung wird geladen...

Live-Position

3D-Globus wird geladen...

Nächste Überflüge

Höhenverlauf

Altitude vs Time

uPlot chart will show altitude changes over time

Zweizeiliger Elementsatz

1 48655U 21044T 26035.83798703 .00006434 00000-0 22921-3 0 9996
2 48655 53.1605 266.5564 0001113 43.2897 316.8191 15.30194219258798
Epoch: 4. Feb. 2026 • Age: 5 hours

Aktueller Status

Höhe 481.3 km
Geschwindigkeit 7.63 km/s
Subsatellitenpunkt 53.01°N, 149.62°W
Startdatum 26. Mai 2021
Alter 4.6 years
Typ internet

Technische Details

Klassifizierung Payload
Masse 260.00 kg
Trockenmasse 248.00 kg
Gesamtmasse 260.00 kg
Länge 0.20 m
Durchmesser 2.80 m
Spannweite 9.00 m
Form Box + pan
Hersteller SPXS
Bus-Typ Starlink
Phasenstatus In Orbit
Besitzer/Staat SPXS/US

Große Konstellationen

Loading constellations...